Regional Weather Roundup
Issued by NWS Cleveland, OH

Home | Current Version | Previous Version | Text Only | Print | Product List | Glossary Off
Versions: 1 2 3 4 5 6 7 8 9 10 11 12 13 14 15 16 17 18 19 20 21 22 23 24 25 26 27 28 29 30 31 32 33 34 35 36 37 38 39 40 41 42 43 44 45 46 47 48 49 50

201
ASUS41 KCLE 010410
RWRCLE
OHIO REGIONAL WEATHER ROUNDUP
NATIONAL WEATHER SERVICE CLEVELAND, OH
1200 AM EDT WED JUN 01 2016

NOTE: "FAIR" INDICATES FEW OR NO CLOUDS BELOW 12,000 FEET WITH NO
SIGNIFICANT WEATHER AND/OR OBSTRUCTIONS TO VISIBILITY.

OHZ001>008-015>018-024>027-034-035-043-044-010500-
   NORTHWEST OHIO

CITY           SKY/WX    TMP DP  RH WIND       PRES   REMARKS
DEFIANCE       CLEAR     67  48  50 E7        30.02S
FINDLAY        PTCLDY    70  45  40 E12       30.01S
TOLEDO EXPRESS PTCLDY    65  50  58 E3        30.02S
TOLEDO EXEC    MOCLDY    65  52  62 E6        30.04R
LIMA           CLOUDY    70  47  43 E13       30.01S
$$

OHZ009>014-019>023-028>033-038-089-010500-
   NORTHEAST OHIO

CITY           SKY/WX    TMP DP  RH WIND       PRES   REMARKS
CLE-HOPKINS    MOCLDY    68  50  52 NE8       30.06S
CLE-LAKEFRONT  CLOUDY    68  54  60 NE8       30.04S
CUY CO. ARPT   NOT AVBL
LORAIN-ELYRIA  CLOUDY    64  51  62 NE7       30.05S
ASHTABULA      PTCLDY    55  53  93 CALM      30.06S
AKRON-CANTON   PTCLDY    65  49  56 NE10      30.04S
WOOSTER        PTCLDY    64  50  60 NE5       30.04F
MANSFIELD      PTCLDY    65  49  56 NE3       30.05R
YOUNGSTOWN     CLOUDY    63  50  62 NE5       30.04F
$$

OHZ042-051>053-060>062-070>072-077>081-010500-
  SOUTHWEST OHIO

CITY           SKY/WX    TMP DP  RH WIND       PRES   REMARKS
CINC-COVINGTON CLEAR     68  61  78 CALM      29.99R
CINC-LUNKEN    CLEAR     66  64  93 CALM      29.99R
HAMILTON       CLEAR     66  62  87 CALM      29.99R
DAYTON         PTCLDY    72  56  57 E10       30.02R
WRIGHT-PAT AFB PTCLDY    73  58  58 CALM      30.00R
DAYTON GENERAL MOCLDY    70  61  73 NE8       30.00R
WILMINGTON     PTCLDY    69  62  78 NE5       30.00R
$$

OHZ036-037-039>041-045>050-054>059-063>069-073>076-082>088-010500-
  CENTRAL AND SOUTHEAST OHIO

CITY           SKY/WX    TMP DP  RH WIND       PRES   REMARKS
COLUMBUS       MOCLDY    72  56  57 E7        30.00S
OSU AIRPORT    PTCLDY    70  55  59 NE6       30.01R
BOLTON FIELD   MOCLDY    72  58  60 E5        30.01S
RICKENBACK AFB MOCLDY    71  58  63 E7        30.00R
NEWARK         CLEAR     73  57  57 CALM      30.01R
MARION         PTCLDY    65  52  62 NE6       30.03R
LANCASTER      MOCLDY    70  60  70 CALM      30.01R
ZANESVILLE     CLEAR     72  59  63 CALM      30.01R
NEW PHILLY     CLEAR     67  54  63 CALM      30.02F
$$




USA.gov is the U.S. government's official web portal to all federal, state and local government web resources and services.